STARLINK-3928

operational
NORAD ID: 52606 Int'l Des: 2022-052 Owner: SPXS Country: US Constellation: starlink
LEOCIRCULAR

STARLINK-3928について

説明を読み込み中...

リアルタイム位置

3D地球を読み込み中...

次回通過

高度履歴

Altitude vs Time

uPlot chart will show altitude changes over time

軌道要素

1 52606U 22052J 25251.62441395 .00004450 00000-0 29766-3 0 9995
2 52606 53.2191 16.4424 0001079 79.2224 280.8890 15.08822508183372
Epoch: Sep 8, 2025 • Age: 5 hours

現在のステータス

高度 542.1 km
速度 7.59 km/s
衛星直下点 -8.10°S, 85.7°E
打ち上げ日 May 14, 2022
運用期間 3.3 years
タイプ internet

技術仕様

分類 Payload
質量 297.00 kg
乾燥質量 275.00 kg
総質量 297.00 kg
長さ 0.20 m
直径 2.80 m
スパン 9.00 m
形状 Box + pan
製造者 SPXS
バスタイプ Starlink
フェーズステータス In Orbit
所有者/国 SPXS/US

大規模コンステレーション

Loading constellations...